{"data":{"norad_id":67802,"intl_designator":"2026-032F","name":"STARLINK-36739","alt_names":[],"object_type":"PAYLOAD","status":"ACTIVE","operator":null,"country":"US","launch_date":"2026-02-15","launch_site_code":"AFWTR","launch_vehicle":null,"mission":null,"orbit_class":"UNKNOWN","rcs_meters":null,"size_class":null,"mass_kg":null,"dimensions":null,"purposes":["comms"],"wikipedia_slug":null,"has_3d_model":false,"image_url":null,"decayed_at":null,"tle_current":{"epoch":"2026-05-25T01:20:36.907008Z","epoch_age_seconds":80373,"freshness":"FRESH","line1":"1 67802U 26032F   26145.05598272  .00019831  00000+0  61457-3 0  9999","line2":"2 67802  97.2852 333.1457 0001642 108.5443 251.5978 15.33464889 16669","mean_motion":15.33464889,"eccentricity":0.0001642,"inclination_deg":97.2852,"raan_deg":333.1457,"arg_perigee_deg":108.5443,"mean_anomaly_deg":251.5978,"bstar":0.00061457,"rev_number":1666,"period_min":93.904986695786,"perigee_km":464.36027687872,"apogee_km":466.60772201493,"semimajor_km":6843.6209994468,"source":"CELESTRAK","updated_at":"2026-05-25T13:38:21.692857Z"}}}